Regional Weather Roundup
Issued by NWS

Home | Current Version | Previous Version | Graphics & Text | Print | Product List | Glossary On
Versions: 1 2 3 4 5 6 7 8 9 10 11 12 13 14 15 16 17 18 19 20 21 22 23 24 25 26 27 28 29 30 31 32 33 34 35 36 37 38 39 40 41 42 43 44 45 46 47 48 49 50
000
ASUS45 KPSR 311900
RWRAZ

ARIZONA HOURLY REGIONAL WEATHER ROUNDUP
NATIONAL WEATHER SERVICE PHOENIX AZ
1200 PM MST MON AUG 31 2015

NOTE: FAIR INDICATES FEW OR NO CLOUDS BELOW 12,000 FEET WITH NO
SIGNIFICANT WEATHER AND/OR OBSTRUCTIONS TO VISIBILITY.

AZZ001>003-036-312000-
NORTHWEST ARIZONA

CITY           SKY/WX    TMP DP  RH WIND       PRES   REMARKS
KINGMAN        MOSUNNY   94  46  19 S12       30.02F
$$

AZZ004>008-015-016-018-312000-
NORTH CENTRAL ARIZONA

CITY           SKY/WX    TMP DP  RH WIND       PRES   REMARKS
GRAND CANYON   CLOUDY    72  52  49 S7        30.29S
WILLIAMS       PTSUNNY   77  54  44 SW9G16    30.33F
PRESCOTT       PTSUNNY   82  57  42 S5        30.16F
FLAGSTAFF      NOT AVBL
PAYSON         MOSUNNY   84  55  37 VRB6G13   30.19F
PAGE           PTSUNNY   78  58  49 VRB3      30.13F
$$

AZZ009>014-017-312000-
NORTHEAST ARIZONA

CITY           SKY/WX    TMP DP  RH WIND       PRES   REMARKS
WINSLOW        NOT AVBL
SAINT JOHNS    PTSUNNY   77  52  41 S5        30.22F
WINDOW ROCK    PTSUNNY   77  51  40 S8        30.28F
SHOW LOW       MOSUNNY   75  54  46 S8        30.27F
$$

AZZ023-312000-
GREATER PHOENIX AREA

CITY           SKY/WX    TMP DP  RH WIND       PRES   REMARKS
PHOENIX        MOSUNNY  100  62  28 VRB7      29.86F HX 101
GLENDALE       MOSUNNY  100  61  27 E9        29.88F HX 101
LUKE AFB       SUNNY    100  61  27 SE10      29.85F HX 100
DEER VALLEY    SUNNY     97  60  29 S7        29.89F
SCOTTSDALE     SUNNY     96  60  30 S7        29.91F
MESA-GATEWAY   MOSUNNY   97  61  30 W7        29.91F
CHANDLER       MOSUNNY   97  63  32 S8        29.88F
$$

AZZ027-028-312000-
SOUTHWEST MARICOPA COUNTY AND PINAL COUNTY

CITY           SKY/WX    TMP DP  RH WIND       PRES   REMARKS
CASA GRANDE    SUNNY    N/A N/A N/A S3        29.89F
$$

AZZ503-504-507>509-312000-
SOUTHEAST ARIZONA

CITY           SKY/WX    TMP DP  RH WIND       PRES   REMARKS
TUCSON         MOSUNNY   93  59  31 VRB3      30.01F
DAVIS-MONTHAN  SUNNY     93  61  34 S7        29.99F
RYAN FIELD     SUNNY     95  63  34 CALM      29.99F
NOGALES        MOSUNNY   91  58  32 VRB5      30.09F
SAFFORD        SUNNY     93  57  29 W8        30.01F
$$

AZZ020-021-025-026-031-312000-
SOUTHWEST ARIZONA

CITY           SKY/WX    TMP DP  RH WIND       PRES   REMARKS
YUMA           MOSUNNY  103  63  27 SE14      29.78F HX 105
$$

CAZ031-033-041-043-047-048-061-312000-
SOUTHERN CALIFORNIA

CITY           SKY/WX    TMP DP  RH WIND       PRES   REMARKS
DOWNTOWN L.A.  SUNNY     81  62  52 CALM      29.90F
L.A. AIRPORT   MOSUNNY   76  62  62 CALM      29.92F
SAN DIEGO      MOSUNNY   74  61  63 SW10      29.93F
BURBANK        SUNNY     81  63  54 S7        29.91F
ONTARIO        MOSUNNY   83  60  45 SW5       29.91F
RIVERSIDE      SUNNY     84  62  47 VRB7      29.90F
PALM SPRINGS   MOSUNNY  100  47  16 E8        29.81F
EL CENTRO NAS  PTSUNNY  101  47  16 CALM      29.79F
IMPERIAL       SUNNY    101  50  18 CALM      29.77F
BLYTHE         MOSUNNY  101  50  18 S7        29.80F
$$

NVZ020-UTZ003-312000-
SOUTHERN NEVADA-UTAH

CITY           SKY/WX    TMP DP  RH WIND       PRES   REMARKS
LAS VEGAS      NOT AVBL
SALT LAKE CITY MOSUNNY   81  40  23 N8        30.07F
$$

NMZ009-TXZ055-312000-
NEW MEXICO-WEST TEXAS

CITY           SKY/WX    TMP DP  RH WIND       PRES   REMARKS
ALBUQUERQUE    MOSUNNY   85  47  26 CALM      30.16F
EL PASO        MOSUNNY   92  45  19 S7        30.07F
$$


........................KEY........................
SKY/WX - SKY CONDITION/WEATHER
TMP    - TEMPERATURE IN FAHRENHEIT
DP     - DEW POINT IN FAHRENHEIT
RH     - RELATIVE HUMIDITY IN PERCENT
WIND   - DIRECTION AND SPEED IN MILES PER HOUR (MPH)
VRB    - VARIABLE WIND DIRECTION
PRES   - MEAN SEA LEVEL PRESSURE IN INCHES OF MERCURY
         F - FALLING PRESSURE   R - RISING PRESSURE
         S - STEADY PRESSURE
VSB    - VISIBILITY IN MILES
HX     - HEAT INDEX IN FAHRENHEIT
WCI    - WIND CHILL INDEX IN FAHRENHEIT
TC     - TEMPERATURE IN CELSIUS WHICH IS ALSO KNOWN AS
         TEMPERATURE IN CENTIGRADE
AFB    - AIR FORCE BASE
         LUKE AFB IS LUKE AIR FORCE BASE
         DAVIS-MONTHAN IS DAVIS-MONTHAN AIR FORCE BASE
NAS    - NAVAL AIR STATION
         EL CENTRO NAS IS EL CENTRO NAVAL AIR STATION
N/A    - NOT AVAILABLE



USA.gov is the U.S. government's official web portal to all federal, state and local government web resources and services.